Location: Newark
(33.9035°S, 18.4112°E)
Time: 03:58:43
(UTC+00:00)

N. Korean satellite - Visible Passes

Search period start: 20 January 2020 00:00
Search period end: 30 January 2020 00:00
Orbit: 454 x 508 km, 97.2° (Epoch: 19 January)

Date Brightness Start Highest point End Pass type
(mag) Time Alt. Az. Time Alt. Az. Time Alt. Az.
21 Jan 9.7 03:07:07 10° ENE 03:09:56 20° ESE 03:12:47 10° SSE visible
24 Jan 8.7 03:23:19 10° NE 03:26:43 33° ESE 03:30:09 10° S visible
25 Jan 9.9 02:59:01 10° ENE 03:01:25 16° ESE 03:03:49 10° SSE visible
28 Jan 9.2 03:15:00 10° NE 03:18:10 26° ESE 03:21:21 10° SSE visible
29 Jan 10.1 02:51:08 10° E 02:52:53 13° ESE 02:54:38 10° SE visible
